This is the latest recevied weather packets stored in our database for station/object DK4SDR-10. If no packets are shown the sender has not sent any weather packets the latest 10 day(s).
| Time | Temp. | Humidity | Pressure | Rain* | Wind** | Luminosity | Snow |
|---|---|---|---|---|---|---|---|
| 1778272522 | 16.67° C | 51% | 1018.6 hPa | - | - | - | - |
| 1778271622 | 16.67° C | 50% | 1018.5 hPa | - | - | - | - |
| 1778270723 | 17.22° C | 49% | 1018.5 hPa | - | - | - | - |
| 1778269822 | 17.78° C | 48% | 1018.5 hPa | - | - | - | - |
| 1778268922 | 17.78° C | 47% | 1018.2 hPa | - | - | - | - |
| 1778268022 | 18.33° C | 46% | 1017.9 hPa | - | - | - | - |
| 1778267122 | 18.89° C | 45% | 1017.8 hPa | - | - | - | - |
| 1778266222 | 20° C | 44% | 1017.5 hPa | - | - | - | - |
| 1778265322 | 20.56° C | 42% | 1017.3 hPa | - | - | - | - |
| 1778264422 | 21.11° C | 40% | 1017.2 hPa | - | - | - | - |
| 1778263521 | 21.67° C | 39% | 1016.9 hPa | - | - | - | - |
| 1778262621 | 22.22° C | 37% | 1016.9 hPa | - | - | - | - |
| 1778261720 | 22.78° C | 36% | 1016.7 hPa | - | - | - | - |
| 1778260819 | 23.33° C | 35% | 1016.7 hPa | - | - | - | - |
| 1778259919 | 23.89° C | 35% | 1016.7 hPa | - | - | - | - |
| 1778259018 | 24.44° C | 35% | 1016.7 hPa | - | - | - | - |
| 1778258117 | 25° C | 34% | 1016.6 hPa | - | - | - | - |
| 1778257217 | 25.56° C | 34% | 1016.6 hPa | - | - | - | - |
| 1778256317 | 26.11° C | 33% | 1016.7 hPa | - | - | - | - |
| 1778255418 | 27.22° C | 32% | 1016.7 hPa | - | - | - | - |
| 1778254518 | 28.33° C | 30% | 1016.6 hPa | - | - | - | - |
| 1778253618 | 29.44° C | 28% | 1016.7 hPa | - | - | - | - |
| 1778252718 | 31.11° C | 27% | 1016.8 hPa | - | - | - | - |
| 1778251818 | 31.11° C | 28% | 1016.9 hPa | - | - | - | - |
| 1778250917 | 31.11° C | 29% | 1017 hPa | - | - | - | - |
* Rain since midnight (hover to see other rain measurements)
** Current wind speed in m/s (hover to see current wind gust speed)